ELY805 UNKL-UIII

Flight info

Callsign ELY805
Flight time 1h 23m
Altitude 39000
Route ATREG2F ATREG R497 RO A817 RUSAM G490 NH NH5A
Aircraft B738/M-SDE2E3FGHIRWXY/LB1

Departure

Time 2026-05-08 16:42
Airport Krasnoyarsk International Airport (UNKL)

Arrival

Time 2026-05-08 18:06
Airport Irkutsk International Airport (UIII)
Time Latitude Longitude Altitude Speed Heading
2026-05-08 15:42 56.18132 92.47252 953 ft 0 kts 24°
2026-05-08 16:14 56.18145 92.47262 954 ft 4 kts 22°
2026-05-08 16:14 56.18172 92.47314 954 ft 8 kts 84°
2026-05-08 16:15 56.18152 92.47427 955 ft 12 kts 114°
2026-05-08 16:15 56.18113 92.47590 956 ft 16 kts 113°
2026-05-08 16:15 56.18063 92.47758 956 ft 14 kts 123°
2026-05-08 16:15 56.18021 92.47910 954 ft 9 kts 114°
2026-05-08 16:16 56.18013 92.47937 954 ft 3 kts 127°
2026-05-08 16:16 56.17977 92.47958 954 ft 8 kts 185°
2026-05-08 16:16 56.17901 92.47906 954 ft 16 kts 203°
2026-05-08 16:16 56.17809 92.47836 953 ft 0 kts 191°
2026-05-08 16:31 56.17821 92.47839 952 ft 2 kts 188°
2026-05-08 16:31 56.17837 92.47843 953 ft 2 kts 182°
2026-05-08 16:31 56.17850 92.47843 953 ft 2 kts 173°
2026-05-08 16:31 56.17866 92.47834 953 ft 2 kts 137°
2026-05-08 16:32 56.17868 92.47830 953 ft 0 kts 127°
2026-05-08 16:32 56.17854 92.47896 954 ft 12 kts 114°
2026-05-08 16:33 56.17805 92.48106 954 ft 23 kts 113°
2026-05-08 16:33 56.17743 92.48366 954 ft 22 kts 113°
2026-05-08 16:33 56.17689 92.48624 956 ft 22 kts 114°
2026-05-08 16:33 56.17629 92.48870 954 ft 21 kts 112°
2026-05-08 16:34 56.17573 92.49110 955 ft 20 kts 112°
2026-05-08 16:34 56.17520 92.49343 956 ft 20 kts 112°
2026-05-08 16:34 56.17467 92.49567 955 ft 19 kts 114°
2026-05-08 16:34 56.17413 92.49784 954 ft 19 kts 114°
2026-05-08 16:35 56.17361 92.50017 955 ft 21 kts 113°
2026-05-08 16:35 56.17308 92.50269 955 ft 22 kts 134°
2026-05-08 16:35 56.17238 92.50514 954 ft 23 kts 112°
2026-05-08 16:35 56.17177 92.50776 955 ft 23 kts 112°
2026-05-08 16:36 56.17118 92.51029 956 ft 22 kts 112°
2026-05-08 16:36 56.17057 92.51276 956 ft 21 kts 114°
2026-05-08 16:36 56.17002 92.51518 955 ft 21 kts 117°
2026-05-08 16:36 56.16945 92.51750 955 ft 20 kts 113°
2026-05-08 16:37 56.16899 92.51941 956 ft 14 kts 115°
2026-05-08 16:37 56.16829 92.52017 952 ft 0 kts 172°
2026-05-08 16:41 56.16819 92.52019 953 ft 6 kts 172°
2026-05-08 16:41 56.16745 92.52038 955 ft 15 kts 172°
2026-05-08 16:41 56.16672 92.51984 952 ft 10 kts 256°
2026-05-08 16:42 56.16819 92.51312 953 ft 81 kts 293°
2026-05-08 16:42 56.17119 92.50046 952 ft 137 kts 293°
2026-05-08 16:42 56.17551 92.48268 1102 ft 166 kts 295°
2026-05-08 16:42 56.18026 92.46350 1610 ft 174 kts 294°
2026-05-08 16:43 56.18489 92.44371 2345 ft 168 kts 292°
2026-05-08 16:43 56.18933 92.42409 2870 ft 177 kts 292°
2026-05-08 16:43 56.19442 92.40202 3048 ft 203 kts 292°
2026-05-08 16:43 56.20042 92.37735 3090 ft 233 kts 293°
2026-05-08 16:44 56.20684 92.34828 3218 ft 255 kts 285°
2026-05-08 16:44 56.20860 92.31774 4175 ft 245 kts 265°
2026-05-08 16:44 56.20368 92.28783 4662 ft 257 kts 243°
2026-05-08 16:44 56.19117 92.26525 5125 ft 268 kts 209°
2026-05-08 16:45 56.17275 92.25715 5579 ft 282 kts 180°
2026-05-08 16:45 56.15395 92.26718 6281 ft 286 kts 150°
2026-05-08 16:45 56.13979 92.29315 6640 ft 301 kts 123°
2026-05-08 16:45 56.12842 92.32457 7280 ft 297 kts 124°
2026-05-08 16:46 56.11732 92.35597 7789 ft 301 kts 122°
2026-05-08 16:46 56.10666 92.38865 8233 ft 306 kts 120°
2026-05-08 16:46 56.09580 92.42158 8767 ft 306 kts 122°
2026-05-08 16:46 56.08483 92.45400 9427 ft 302 kts 122°
2026-05-08 16:47 56.07379 92.48604 9899 ft 306 kts 123°
2026-05-08 16:47 56.06195 92.51886 10060 ft 319 kts 124°
2026-05-08 16:47 56.04961 92.55288 10198 ft 333 kts 123°
2026-05-08 16:47 56.03702 92.58853 10306 ft 345 kts 123°
2026-05-08 16:48 56.02410 92.62539 10481 ft 354 kts 123°
2026-05-08 16:48 56.01093 92.66291 10842 ft 355 kts 123°
2026-05-08 16:48 55.99782 92.70015 11267 ft 355 kts 123°
2026-05-08 16:48 55.98480 92.73695 11563 ft 358 kts 123°
2026-05-08 16:49 55.97146 92.77460 12323 ft 360 kts 124°
2026-05-08 16:49 55.95797 92.81254 13155 ft 362 kts 124°
2026-05-08 16:49 55.94437 92.85064 13894 ft 368 kts 124°
2026-05-08 16:49 55.93119 92.89019 14569 ft 373 kts 121°
2026-05-08 16:50 55.92271 92.91700 15068 ft 375 kts 121°
2026-05-08 16:50 55.90958 92.95746 15810 ft 379 kts 122°
2026-05-08 16:50 55.89586 92.99777 16515 ft 382 kts 123°
2026-05-08 16:50 55.88154 93.03804 17228 ft 387 kts 123°
2026-05-08 16:51 55.86676 93.07844 17926 ft 391 kts 124°
2026-05-08 16:51 55.85165 93.11911 18567 ft 396 kts 124°
2026-05-08 16:51 55.83632 93.16007 19172 ft 400 kts 124°
2026-05-08 16:51 55.82083 93.20134 19788 ft 403 kts 124°
2026-05-08 16:52 55.80511 93.24314 20419 ft 407 kts 124°
2026-05-08 16:52 55.78934 93.28506 21011 ft 411 kts 124°
2026-05-08 16:52 55.77339 93.32744 21586 ft 415 kts 124°
2026-05-08 16:52 55.75724 93.37022 22164 ft 419 kts 125°
2026-05-08 16:53 55.72631 93.45883 23334 ft 425 kts 120°
2026-05-08 16:53 55.71185 93.50469 23889 ft 427 kts 119°
2026-05-08 16:53 55.69746 93.55092 24361 ft 430 kts 119°
2026-05-08 16:54 55.68296 93.59745 24807 ft 433 kts 120°
2026-05-08 16:54 55.66826 93.64424 25267 ft 436 kts 120°
2026-05-08 16:54 55.65339 93.69127 25729 ft 439 kts 120°
2026-05-08 16:54 55.63834 93.73853 26170 ft 442 kts 120°
2026-05-08 16:55 55.62318 93.78593 26611 ft 445 kts 120°
2026-05-08 16:55 55.60787 93.83369 27055 ft 447 kts 120°
2026-05-08 16:55 55.59241 93.88174 27466 ft 450 kts 121°
2026-05-08 16:55 55.57707 93.92931 27891 ft 453 kts 121°
2026-05-08 16:56 55.56142 93.97773 28314 ft 455 kts 121°
2026-05-08 16:56 55.54565 94.02645 28705 ft 458 kts 121°
2026-05-08 16:56 55.52977 94.07540 29073 ft 461 kts 121°
2026-05-08 16:56 55.51380 94.12457 29437 ft 463 kts 121°
2026-05-08 16:57 55.49771 94.17401 29811 ft 466 kts 121°
2026-05-08 16:57 55.48149 94.22372 30136 ft 468 kts 121°
2026-05-08 16:57 55.46521 94.27353 30411 ft 471 kts 121°
2026-05-08 16:57 55.44876 94.32376 30671 ft 474 kts 121°
2026-05-08 16:58 55.43216 94.37435 30926 ft 477 kts 121°
2026-05-08 16:58 55.41551 94.42499 31205 ft 479 kts 121°
2026-05-08 16:58 55.39873 94.47590 31430 ft 482 kts 121°
2026-05-08 16:58 55.38184 94.52703 31651 ft 485 kts 122°
2026-05-08 16:59 55.36481 94.57850 31919 ft 487 kts 122°
2026-05-08 16:59 55.34773 94.63000 32257 ft 487 kts 122°
2026-05-08 16:59 55.33069 94.68129 32634 ft 486 kts 122°
2026-05-08 16:59 55.31362 94.73259 32970 ft 486 kts 122°
2026-05-08 17:00 55.29652 94.78386 33268 ft 487 kts 122°
2026-05-08 17:00 55.27977 94.83569 33538 ft 489 kts 117°
2026-05-08 17:00 55.26690 94.89096 33876 ft 490 kts 108°
2026-05-08 17:00 55.25877 94.94808 34166 ft 490 kts 98°
2026-05-08 17:01 55.25447 95.00726 34460 ft 489 kts 96°
2026-05-08 17:01 55.25068 95.06636 34740 ft 488 kts 95°
2026-05-08 17:01 55.24693 95.12554 34999 ft 488 kts 96°
2026-05-08 17:01 55.24307 95.18469 35276 ft 488 kts 96°
2026-05-08 17:02 55.23916 95.24230 35562 ft 488 kts 96°
2026-05-08 17:02 55.23491 95.30272 35827 ft 487 kts 96°
2026-05-08 17:02 55.23070 95.36120 36081 ft 487 kts 96°
2026-05-08 17:02 55.22639 95.41997 36335 ft 487 kts 96°
2026-05-08 17:03 55.22205 95.47878 36603 ft 486 kts 96°
2026-05-08 17:03 55.21767 95.53756 36869 ft 486 kts 96°
2026-05-08 17:03 55.21327 95.59625 37118 ft 486 kts 96°
2026-05-08 17:03 55.20886 95.65492 37362 ft 485 kts 96°
2026-05-08 17:04 55.20443 95.71344 37613 ft 485 kts 96°
2026-05-08 17:04 55.19998 95.77190 37847 ft 484 kts 96°
2026-05-08 17:04 55.19550 95.83035 38081 ft 484 kts 96°
2026-05-08 17:04 55.19100 95.88877 38318 ft 484 kts 96°
2026-05-08 17:05 55.18653 95.94636 38551 ft 483 kts 96°
2026-05-08 17:05 55.18198 96.00456 38727 ft 483 kts 96°
2026-05-08 17:05 55.17740 96.06283 38892 ft 483 kts 96°
2026-05-08 17:05 55.17279 96.12119 38933 ft 486 kts 96°
2026-05-08 17:06 55.16344 96.23830 38936 ft 485 kts 96°
2026-05-08 17:06 55.15403 96.35471 38937 ft 482 kts 97°
2026-05-08 17:07 55.14455 96.47057 38942 ft 480 kts 97°
2026-05-08 17:07 55.13501 96.58586 38936 ft 479 kts 97°
2026-05-08 17:08 55.12537 96.70090 38949 ft 478 kts 97°
2026-05-08 17:08 55.11564 96.81579 38947 ft 478 kts 97°
2026-05-08 17:09 55.10580 96.93060 38951 ft 478 kts 97°
2026-05-08 17:09 55.09585 97.04556 38950 ft 479 kts 97°
2026-05-08 17:10 55.08558 97.16086 38956 ft 480 kts 98°
2026-05-08 17:10 55.07464 97.27536 38942 ft 482 kts 98°
2026-05-08 17:11 55.06343 97.39081 38939 ft 483 kts 98°
2026-05-08 17:11 55.05216 97.50646 38935 ft 484 kts 98°
2026-05-08 17:12 55.04082 97.62225 38932 ft 484 kts 98°
2026-05-08 17:12 55.02936 97.73813 38952 ft 485 kts 98°
2026-05-08 17:13 55.01779 97.85395 38942 ft 485 kts 98°
2026-05-08 17:13 55.00611 97.96963 38947 ft 484 kts 98°
2026-05-08 17:14 54.99442 98.08434 38943 ft 484 kts 98°
2026-05-08 17:14 54.98256 98.19954 38950 ft 483 kts 98°
2026-05-08 17:15 54.97061 98.31447 38941 ft 482 kts 98°
2026-05-08 17:15 54.95859 98.42899 38942 ft 481 kts 99°
2026-05-08 17:16 54.94648 98.54325 38938 ft 480 kts 99°
2026-05-08 17:16 54.93430 98.65714 38939 ft 479 kts 99°
2026-05-08 17:17 54.92203 98.77086 38948 ft 477 kts 99°
2026-05-08 17:17 54.90969 98.88419 38936 ft 477 kts 99°
2026-05-08 17:18 54.89727 98.99736 38934 ft 477 kts 99°
2026-05-08 17:18 54.88458 99.11035 38938 ft 476 kts 100°
2026-05-08 17:19 54.87091 99.22288 38927 ft 476 kts 100°
2026-05-08 17:19 54.85695 99.33537 38935 ft 477 kts 100°
2026-05-08 17:20 54.84300 99.44783 38926 ft 477 kts 100°
2026-05-08 17:20 54.82900 99.56034 38926 ft 477 kts 100°
2026-05-08 17:21 54.81492 99.67277 38912 ft 477 kts 100°
2026-05-08 17:21 54.80074 99.78515 38915 ft 477 kts 101°
2026-05-08 17:22 54.78646 99.89733 38914 ft 477 kts 101°
2026-05-08 17:22 54.77205 100.00961 38912 ft 477 kts 101°
2026-05-08 17:23 54.75766 100.12093 38909 ft 477 kts 101°
2026-05-08 17:23 54.74306 100.23296 38906 ft 477 kts 101°
2026-05-08 17:24 54.72837 100.34481 38902 ft 476 kts 101°
2026-05-08 17:24 54.71357 100.45661 38904 ft 476 kts 101°
2026-05-08 17:25 54.69869 100.56815 38915 ft 476 kts 101°
2026-05-08 17:25 54.68372 100.67961 38920 ft 476 kts 101°
2026-05-08 17:26 54.66864 100.79093 38912 ft 476 kts 101°
2026-05-08 17:26 54.65345 100.90227 38924 ft 475 kts 101°
2026-05-08 17:27 54.63818 101.01343 38916 ft 475 kts 101°
2026-05-08 17:27 54.62291 101.12366 38909 ft 475 kts 101°
2026-05-08 17:28 54.60748 101.23431 38909 ft 474 kts 102°
2026-05-08 17:28 54.59197 101.34470 38919 ft 473 kts 102°
2026-05-08 17:29 54.57640 101.45477 38922 ft 473 kts 102°
2026-05-08 17:29 54.56073 101.56468 38926 ft 472 kts 102°
2026-05-08 17:30 54.54498 101.67443 38926 ft 471 kts 102°
2026-05-08 17:30 54.52915 101.78393 38928 ft 471 kts 102°
2026-05-08 17:31 54.51324 101.89324 38951 ft 471 kts 102°
2026-05-08 17:31 54.49722 102.00254 38933 ft 471 kts 102°
2026-05-08 17:32 54.48122 102.11095 38947 ft 471 kts 102°
2026-05-08 17:32 54.46501 102.22006 38945 ft 471 kts 102°
2026-05-08 17:33 54.44872 102.32896 38943 ft 471 kts 102°
2026-05-08 17:33 54.43231 102.43790 38953 ft 471 kts 102°
2026-05-08 17:34 54.41583 102.54661 38947 ft 471 kts 102°
2026-05-08 17:34 54.39922 102.65544 38945 ft 471 kts 102°
2026-05-08 17:35 54.38252 102.76423 38798 ft 474 kts 102°
2026-05-08 17:35 54.37690 102.80069 38413 ft 479 kts 102°
2026-05-08 17:35 54.36568 102.87379 37652 ft 475 kts 102°
2026-05-08 17:36 54.36003 102.91073 37268 ft 473 kts 102°
2026-05-08 17:36 54.35168 102.96534 36677 ft 472 kts 102°
2026-05-08 17:36 54.34067 103.03709 35911 ft 470 kts 102°
2026-05-08 17:36 54.33505 103.07360 35611 ft 467 kts 102°
2026-05-08 17:37 54.32677 103.12700 35190 ft 462 kts 102°
2026-05-08 17:37 54.31552 103.17834 34715 ft 462 kts 119°
2026-05-08 17:37 54.29559 103.22123 34346 ft 460 kts 136°
2026-05-08 17:37 54.27006 103.25356 33906 ft 457 kts 152°
2026-05-08 17:38 54.24158 103.27550 33473 ft 452 kts 158°
2026-05-08 17:38 54.21259 103.29576 33011 ft 448 kts 158°
2026-05-08 17:38 54.18381 103.31545 32603 ft 444 kts 158°
2026-05-08 17:38 54.15523 103.33507 32185 ft 440 kts 158°
2026-05-08 17:39 54.12700 103.35471 31789 ft 436 kts 157°
2026-05-08 17:39 54.09908 103.37430 31377 ft 432 kts 157°
2026-05-08 17:39 54.07140 103.39383 30972 ft 429 kts 157°
2026-05-08 17:39 54.04395 103.41327 30580 ft 425 kts 157°
2026-05-08 17:40 54.01672 103.43257 30188 ft 422 kts 157°
2026-05-08 17:40 53.98975 103.45168 29736 ft 418 kts 157°
2026-05-08 17:40 53.96300 103.47062 29343 ft 414 kts 157°
2026-05-08 17:40 53.93660 103.48928 28935 ft 409 kts 157°
2026-05-08 17:41 53.91081 103.50748 28545 ft 405 kts 157°
2026-05-08 17:41 53.88494 103.52571 28143 ft 401 kts 157°
2026-05-08 17:41 53.85932 103.54373 27755 ft 397 kts 157°
2026-05-08 17:41 53.83393 103.56158 27360 ft 393 kts 157°
2026-05-08 17:42 53.80879 103.57922 26972 ft 390 kts 157°
2026-05-08 17:42 53.78372 103.59678 26587 ft 387 kts 157°
2026-05-08 17:42 53.75886 103.61419 26206 ft 384 kts 157°
2026-05-08 17:42 53.73425 103.63139 25829 ft 382 kts 156°
2026-05-08 17:43 53.70979 103.64847 25448 ft 379 kts 156°
2026-05-08 17:43 53.68549 103.66542 25097 ft 377 kts 156°
2026-05-08 17:43 53.66127 103.68228 24713 ft 376 kts 156°
2026-05-08 17:43 53.63714 103.69907 24347 ft 374 kts 156°
2026-05-08 17:44 53.61314 103.71573 23982 ft 372 kts 156°
2026-05-08 17:44 53.58924 103.73231 23617 ft 371 kts 156°
2026-05-08 17:44 53.56545 103.74880 23200 ft 370 kts 156°
2026-05-08 17:44 53.54171 103.76523 22773 ft 368 kts 156°
2026-05-08 17:45 53.51812 103.78154 22428 ft 364 kts 156°
2026-05-08 17:45 53.49476 103.79768 22060 ft 362 kts 156°
2026-05-08 17:45 53.47182 103.81351 21694 ft 360 kts 156°
2026-05-08 17:45 53.44874 103.82942 21343 ft 357 kts 156°
2026-05-08 17:46 53.42583 103.84519 20969 ft 355 kts 156°
2026-05-08 17:46 53.40304 103.86085 20617 ft 353 kts 156°
2026-05-08 17:46 53.38048 103.87657 20268 ft 351 kts 154°
2026-05-08 17:46 53.35890 103.89519 19958 ft 347 kts 149°
2026-05-08 17:47 53.33790 103.91496 19610 ft 346 kts 149°
2026-05-08 17:47 53.31707 103.93490 19251 ft 344 kts 149°
2026-05-08 17:47 53.29630 103.95472 18910 ft 343 kts 149°
2026-05-08 17:47 53.28253 103.96778 18707 ft 343 kts 149°
2026-05-08 17:48 53.25473 103.99394 18217 ft 342 kts 149°
2026-05-08 17:48 53.23400 104.01333 17820 ft 341 kts 149°
2026-05-08 17:48 53.21334 104.03259 17433 ft 340 kts 149°
2026-05-08 17:48 53.19276 104.05174 17079 ft 338 kts 149°
2026-05-08 17:49 53.17225 104.07079 16728 ft 336 kts 149°
2026-05-08 17:49 53.15194 104.08966 16384 ft 334 kts 149°
2026-05-08 17:49 53.13189 104.10824 16046 ft 332 kts 149°
2026-05-08 17:49 53.11172 104.12690 15715 ft 331 kts 150°
2026-05-08 17:50 53.09162 104.14541 15370 ft 329 kts 150°
2026-05-08 17:50 53.07157 104.16366 15034 ft 328 kts 150°
2026-05-08 17:50 53.05155 104.18179 14703 ft 327 kts 150°
2026-05-08 17:50 53.03160 104.19984 14370 ft 326 kts 150°
2026-05-08 17:51 53.01168 104.21786 14033 ft 326 kts 150°
2026-05-08 17:51 52.99178 104.23585 13692 ft 325 kts 151°
2026-05-08 17:51 52.97197 104.25375 13319 ft 324 kts 151°
2026-05-08 17:51 52.95220 104.27160 12957 ft 323 kts 151°
2026-05-08 17:52 52.93252 104.28935 12613 ft 321 kts 151°
2026-05-08 17:52 52.91290 104.30704 12290 ft 319 kts 150°
2026-05-08 17:52 52.87432 104.34176 11603 ft 316 kts 150°
2026-05-08 17:53 52.85504 104.35909 11274 ft 315 kts 150°
2026-05-08 17:53 52.83580 104.37640 10938 ft 314 kts 150°
2026-05-08 17:53 52.81664 104.39358 10608 ft 313 kts 151°
2026-05-08 17:53 52.79754 104.41068 10294 ft 311 kts 151°
2026-05-08 17:54 52.77873 104.42750 10155 ft 303 kts 151°
2026-05-08 17:54 52.75987 104.44207 9992 ft 296 kts 166°
2026-05-08 17:54 52.73979 104.44337 9789 ft 289 kts 193°
2026-05-08 17:54 52.72104 104.43221 9506 ft 285 kts 210°
2026-05-08 17:55 52.70386 104.41694 9313 ft 272 kts 212°
2026-05-08 17:55 52.68789 104.40250 9181 ft 252 kts 212°
2026-05-08 17:55 52.67300 104.38916 9031 ft 236 kts 212°
2026-05-08 17:55 52.65888 104.37663 8686 ft 232 kts 211°
2026-05-08 17:56 52.64458 104.36398 8297 ft 230 kts 211°
2026-05-08 17:56 52.63069 104.35176 8000 ft 222 kts 211°
2026-05-08 17:56 52.61737 104.34008 7802 ft 214 kts 211°
2026-05-08 17:56 52.60419 104.32856 7657 ft 215 kts 211°
2026-05-08 17:57 52.59118 104.31721 7540 ft 214 kts 211°
2026-05-08 17:57 52.57809 104.30580 7389 ft 211 kts 211°
2026-05-08 17:57 52.56544 104.29479 7206 ft 201 kts 211°
2026-05-08 17:57 52.55329 104.28423 7040 ft 196 kts 211°
2026-05-08 17:58 52.54119 104.27368 6915 ft 197 kts 210°
2026-05-08 17:58 52.52916 104.26321 6760 ft 195 kts 210°
2026-05-08 17:58 52.51720 104.25282 6609 ft 194 kts 210°
2026-05-08 17:58 52.50533 104.24250 6460 ft 192 kts 210°
2026-05-08 17:59 52.49355 104.23226 6312 ft 191 kts 210°
2026-05-08 17:59 52.48183 104.22209 6155 ft 190 kts 210°
2026-05-08 17:59 52.47012 104.21194 6001 ft 190 kts 210°
2026-05-08 17:59 52.45849 104.20187 5864 ft 189 kts 210°
2026-05-08 18:00 52.44691 104.19185 5730 ft 186 kts 210°
2026-05-08 18:00 52.42349 104.17259 5406 ft 190 kts 205°
2026-05-08 18:00 52.41145 104.16417 5267 ft 187 kts 205°
2026-05-08 18:01 52.39951 104.15584 5116 ft 186 kts 205°
2026-05-08 18:01 52.38785 104.14766 4982 ft 185 kts 205°
2026-05-08 18:01 52.37615 104.13945 4852 ft 182 kts 205°
2026-05-08 18:01 52.36458 104.13139 4698 ft 182 kts 202°
2026-05-08 18:02 52.35200 104.12954 4553 ft 185 kts 170°
2026-05-08 18:02 52.34373 104.13407 4460 ft 187 kts 152°
2026-05-08 18:02 52.33209 104.15392 4255 ft 184 kts 115°
2026-05-08 18:02 52.32655 104.17282 4104 ft 185 kts 109°
2026-05-08 18:03 52.32144 104.19195 3942 ft 183 kts 114°
2026-05-08 18:03 52.31616 104.21083 3802 ft 179 kts 113°
2026-05-08 18:03 52.31126 104.22901 3641 ft 173 kts 112°
2026-05-08 18:03 52.30642 104.24713 3469 ft 176 kts 112°
2026-05-08 18:04 52.30158 104.26532 3231 ft 173 kts 113°
2026-05-08 18:04 52.29681 104.28317 2966 ft 169 kts 113°
2026-05-08 18:04 52.29218 104.30054 2735 ft 166 kts 113°
2026-05-08 18:04 52.28765 104.31754 2497 ft 165 kts 114°
2026-05-08 18:05 52.28315 104.33450 2254 ft 161 kts 111°
2026-05-08 18:05 52.27869 104.35130 2031 ft 160 kts 110°
2026-05-08 18:05 52.27446 104.36769 1764 ft 153 kts 112°
2026-05-08 18:05 52.27036 104.38262 1646 ft 136 kts 112°
2026-05-08 18:06 52.26703 104.39551 1642 ft 108 kts 113°
2026-05-08 18:06 52.26479 104.40343 1675 ft 47 kts 112°
2026-05-08 18:06 52.26379 104.40719 1678 ft 34 kts 114°
2026-05-08 18:06 52.26291 104.41054 1680 ft 30 kts 113°
2026-05-08 18:07 52.26176 104.41280 1686 ft 18 kts 184°
2026-05-08 18:07 52.26143 104.41265 1684 ft 0 kts 204°
2026-05-08 18:07 52.26132 104.41257 1686 ft 6 kts 204°
2026-05-08 18:07 52.26066 104.41213 1689 ft 15 kts 201°
2026-05-08 18:08 52.26001 104.41055 1681 ft 23 kts 283°
2026-05-08 18:08 52.26073 104.40770 1675 ft 29 kts 294°
2026-05-08 18:08 52.26153 104.40468 1676 ft 28 kts 293°
2026-05-08 18:08 52.26228 104.40184 1666 ft 26 kts 295°
2026-05-08 18:09 52.26300 104.39920 1660 ft 25 kts 294°
2026-05-08 18:09 52.26366 104.39674 1650 ft 23 kts 294°
2026-05-08 18:09 52.26429 104.39444 1645 ft 22 kts 291°
2026-05-08 18:09 52.26456 104.39335 1642 ft 22 kts 292°